• Em Portugal
  • Lista de países
  • Para 7 dias
  • Temperatura da água
  • Mapas de satélite
  • Mapa do tempo
  • Widgets de tempo
  • user-avatar
    Iniciar Sessão

    Previsão horária em Cvetochnaya Balka

    Hoje, 22 Setembro, Sábado

    Tempo Temperatura Precipitação Vento Pressão Humidade
    00:00 +17°C° 0 mm 2 m/s 746 mmHg 80%
    01:00 +17°C° 0 mm 2 m/s 746 mmHg 81%
    02:00 +16°C° 0 mm 2 m/s 746 mmHg 79%
    03:00 +16°C° 0 mm 2 m/s 745 mmHg 79%
    04:00 +16°C° 0 mm 2 m/s 745 mmHg 79%
    05:00 +16°C° 0 mm 2 m/s 745 mmHg 78%
    06:00 +17°C° 0 mm 3 m/s 745 mmHg 74%
    07:00 +19°C° 0 mm 3 m/s 745 mmHg 70%
    08:00 +20°C° 0 mm 4 m/s 745 mmHg 63%
    09:00 +21°C° 0 mm 4 m/s 744 mmHg 59%
    10:00 +23°C° 0 mm 5 m/s 744 mmHg 56%
    11:00 +25°C° 0 mm 5 m/s 744 mmHg 52%
    12:00 +26°C° 0 mm 5 m/s 744 mmHg 51%
    13:00 +26°C° 0 mm 6 m/s 743 mmHg 49%
    14:00 +27°C° 0 mm 5 m/s 742 mmHg 47%
    15:00 +26°C° 0 mm 4 m/s 742 mmHg 52%
    16:00 +25°C° 0 mm 4 m/s 741 mmHg 57%
    17:00 +23°C° 0 mm 4 m/s 741 mmHg 62%
    18:00 +22°C° 0 mm 4 m/s 740 mmHg 62%
    19:00 +21°C° 0 mm 4 m/s 740 mmHg 62%
    20:00 +20°C° 0 mm 4 m/s 740 mmHg 62%
    21:00 +20°C° 0 mm 5 m/s 739 mmHg 60%
    22:00 +19°C° 0 mm 5 m/s 739 mmHg 59%
    23:00 +19°C° 0 mm 5 m/s 739 mmHg 57%

    Amanhã, 23 Setembro, Domingo

    Tempo Temperatura Precipitação Vento Pressão Humidade
    00:00 +19°C° 0 mm 5 m/s 739 mmHg 60%
    01:00 +17°C° 0 mm 5 m/s 738 mmHg 62%
    02:00 +16°C° 0 mm 5 m/s 738 mmHg 64%
    03:00 +15°C° 0.5 mm 5 m/s 738 mmHg 71%
    04:00 +13°C° 0.5 mm 5 m/s 738 mmHg 79%
    05:00 +12°C° 0.5 mm 5 m/s 738 mmHg 86%
    06:00 +10°C° 1.1 mm 5 m/s 738 mmHg 87%
    07:00 +9°C° 1.1 mm 5 m/s 739 mmHg 87%
    08:00 +8°C° 1.1 mm 5 m/s 739 mmHg 88%
    09:00 +9°C° 0.1 mm 5 m/s 739 mmHg 85%
    10:00 +10°C° 0.1 mm 4 m/s 740 mmHg 82%
    11:00 +11°C° 0.1 mm 4 m/s 741 mmHg 79%
    12:00 +12°C° 0.1 mm 4 m/s 741 mmHg 75%
    13:00 +13°C° 0.1 mm 4 m/s 741 mmHg 71%
    14:00 +14°C° 0.1 mm 4 m/s 741 mmHg 67%
    15:00 +13°C° 0.1 mm 3 m/s 741 mmHg 70%
    16:00 +13°C° 0.1 mm 3 m/s 741 mmHg 72%
    17:00 +13°C° 0.1 mm 2 m/s 740 mmHg 75%
    18:00 +12°C° 0 mm 2 m/s 741 mmHg 79%
    19:00 +10°C° 0 mm 3 m/s 741 mmHg 82%
    20:00 +9°C° 0 mm 3 m/s 741 mmHg 86%
    21:00 +9°C° 0 mm 3 m/s 741 mmHg 87%
    22:00 +8°C° 0 mm 3 m/s 741 mmHg 88%
    23:00 +8°C° 0 mm 3 m/s 741 mmHg 90%

    Depois de amanhã, 24 Setembro, Segunda-feira

    Tempo Temperatura Precipitação Vento Pressão Humidade
    00:00 +8°C° 0 mm 3 m/s 741 mmHg 90%
    01:00 +8°C° 0 mm 3 m/s 741 mmHg 90%
    02:00 +7°C° 0 mm 2 m/s 741 mmHg 91%
    03:00 +7°C° 0 mm 3 m/s 741 mmHg 88%
    04:00 +8°C° 0 mm 3 m/s 740 mmHg 86%
    05:00 +8°C° 0 mm 3 m/s 740 mmHg 84%
    06:00 +8°C° 0 mm 4 m/s 740 mmHg 80%
    07:00 +10°C° 0 mm 4 m/s 739 mmHg 77%
    08:00 +11°C° 0 mm 4 m/s 739 mmHg 74%
    09:00 +10°C° 0.6 mm 5 m/s 738 mmHg 76%
    10:00 +10°C° 0.6 mm 6 m/s 738 mmHg 78%
    11:00 +10°C° 0.6 mm 6 m/s 737 mmHg 80%
    12:00 +9°C° 1.6 mm 7 m/s 736 mmHg 82%
    13:00 +9°C° 1.6 mm 8 m/s 734 mmHg 85%
    14:00 +7°C° 1.6 mm 9 m/s 733 mmHg 87%
    15:00 +8°C° 1.8 mm 9 m/s 732 mmHg 88%
    16:00 +10°C° 1.8 mm 9 m/s 730 mmHg 89%
    17:00 +11°C° 1.8 mm 9 m/s 728 mmHg 89%
    18:00 +11°C° 0.8 mm 9 m/s 728 mmHg 88%
    19:00 +11°C° 0.8 mm 9 m/s 727 mmHg 87%
    20:00 +11°C° 0.8 mm 9 m/s 726 mmHg 86%
    21:00 +10°C° 0 mm 9 m/s 727 mmHg 85%
    22:00 +8°C° 0 mm 9 m/s 727 mmHg 85%
    23:00 +7°C° 0 mm 8 m/s 728 mmHg 84%

    25 Setembro, Terça-feira

    Tempo Temperatura Precipitação Vento Pressão Humidade
    00:00 +6°C° 0 mm 8 m/s 729 mmHg 84%
    01:00 +6°C° 0 mm 8 m/s 729 mmHg 84%
    02:00 +6°C° 0 mm 7 m/s 730 mmHg 84%
    03:00 +6°C° 0.1 mm 7 m/s 731 mmHg 84%
    04:00 +6°C° 0.1 mm 7 m/s 731 mmHg 85%
    05:00 +6°C° 0.1 mm 7 m/s 732 mmHg 85%
    06:00 +6°C° 0.1 mm 7 m/s 733 mmHg 84%
    07:00 +6°C° 0.1 mm 7 m/s 733 mmHg 82%
    08:00 +6°C° 0.1 mm 8 m/s 734 mmHg 80%
    09:00 +6°C° 0 mm 7 m/s 735 mmHg 80%
    10:00 +6°C° 0 mm 7 m/s 735 mmHg 79%
    11:00 +5°C° 0 mm 7 m/s 736 mmHg 78%
    12:00 +5°C° 0 mm 7 m/s 737 mmHg 77%
    13:00 +5°C° 0 mm 7 m/s 737 mmHg 76%
    14:00 +5°C° 0 mm 7 m/s 738 mmHg 75%
    15:00 +5°C° 0 mm 6 m/s 739 mmHg 75%
    16:00 +5°C° 0 mm 6 m/s 739 mmHg 74%
    17:00 +5°C° 0 mm 6 m/s 740 mmHg 74%
    18:00 +6°C° 0 mm 5 m/s 740 mmHg 75%
    19:00 +5°C° 0 mm 5 m/s 741 mmHg 77%
    20:00 +5°C° 0 mm 4 m/s 741 mmHg 78%
    21:00 +5°C° 0 mm 4 m/s 742 mmHg 78%
    22:00 +4°C° 0 mm 4 m/s 742 mmHg 77%
    23:00 +3°C° 0 mm 5 m/s 743 mmHg 77%

    26 Setembro, Quarta-feira

    Tempo Temperatura Precipitação Vento Pressão Humidade
    00:00 +3°C° 0 mm 5 m/s 744 mmHg 78%
    01:00 +2°C° 0 mm 5 m/s 744 mmHg 79%
    02:00 +2°C° 0 mm 5 m/s 745 mmHg 79%
    03:00 +3°C° 0 mm 4 m/s 746 mmHg 79%
    04:00 +1°C° 0 mm 4 m/s 746 mmHg 80%
    05:00 +1°C° 0 mm 4 m/s 747 mmHg 80%
    06:00 +1°C° 0 mm 4 m/s 747 mmHg 76%
    07:00 +2°C° 0 mm 5 m/s 748 mmHg 72%
    08:00 +3°C° 0 mm 5 m/s 748 mmHg 68%
    09:00 +5°C° 0 mm 5 m/s 749 mmHg 63%
    10:00 +7°C° 0 mm 5 m/s 749 mmHg 58%
    11:00 +8°C° 0 mm 5 m/s 749 mmHg 53%
    12:00 +9°C° 0 mm 6 m/s 749 mmHg 52%
    13:00 +9°C° 0 mm 6 m/s 749 mmHg 51%
    14:00 +10°C° 0 mm 6 m/s 748 mmHg 50%
    15:00 +9°C° 0 mm 5 m/s 748 mmHg 55%
    16:00 +8°C° 0 mm 5 m/s 748 mmHg 60%
    17:00 +8°C° 0 mm 4 m/s 748 mmHg 65%
    18:00 +8°C° 0 mm 5 m/s 747 mmHg 66%
    19:00 +8°C° 0 mm 5 m/s 747 mmHg 68%
    20:00 +7°C° 0 mm 5 m/s 747 mmHg 70%
    21:00 +7°C° 0.1 mm 6 m/s 746 mmHg 73%
    22:00 +7°C° 0.1 mm 6 m/s 746 mmHg 76%
    23:00 +6°C° 0.1 mm 7 m/s 745 mmHg 79%

    27 Setembro, Quinta-feira

    Tempo Temperatura Precipitação Vento Pressão Humidade
    00:00 +6°C° 0.3 mm 7 m/s 744 mmHg 80%
    01:00 +5°C° 0.3 mm 7 m/s 744 mmHg 80%
    02:00 +5°C° 0.3 mm 8 m/s 743 mmHg 81%
    03:00 +5°C° 0.2 mm 8 m/s 742 mmHg 80%
    04:00 +5°C° 0.2 mm 8 m/s 742 mmHg 80%
    05:00 +5°C° 0.2 mm 9 m/s 741 mmHg 80%
    06:00 +5°C° 0.1 mm 9 m/s 741 mmHg 81%
    07:00 +5°C° 0.1 mm 9 m/s 740 mmHg 82%
    08:00 +5°C° 0.1 mm 9 m/s 740 mmHg 82%
    09:00 +6°C° 0.1 mm 9 m/s 740 mmHg 82%
    10:00 +6°C° 0.1 mm 8 m/s 740 mmHg 82%
    11:00 +7°C° 0.1 mm 8 m/s 740 mmHg 82%
    12:00 +7°C° 0.4 mm 8 m/s 739 mmHg 84%
    13:00 +7°C° 0.4 mm 8 m/s 739 mmHg 85%
    14:00 +7°C° 0.4 mm 8 m/s 738 mmHg 87%
    15:00 +7°C° 0.4 mm 8 m/s 738 mmHg 87%
    16:00 +7°C° 0.4 mm 8 m/s 737 mmHg 88%
    17:00 +7°C° 0.4 mm 8 m/s 737 mmHg 89%
    18:00 +8°C° 0.4 mm 7 m/s 737 mmHg 89%
    19:00 +9°C° 0.4 mm 7 m/s 737 mmHg 89%
    20:00 +9°C° 0.4 mm 7 m/s 736 mmHg 89%
    21:00 +9°C° 0.4 mm 7 m/s 736 mmHg 89%
    22:00 +10°C° 0.4 mm 8 m/s 736 mmHg 88%
    23:00 +10°C° 0.4 mm 8 m/s 736 mmHg 87%
    Mostrar mais